Location: Shepherdstown, WV
(39.4326°N, 77.8042°W)
Time: 03:18:37
(UTC-04:00)

Vanguard 1 - Pass Details

Date: 05 October 2021
Orbit: 653 x 3829 km, 34.2° (Epoch: 18 October)

Event Time Altitude Azimuth Distance (km) Brightness Sun altitude
Rises 20:08:47 0° 267° (W) 5,103 15.4 -16.6°
Reaches altitude 10° 20:11:31 10° 265° (W) 4,431 14.6 -17.1°
Maximum altitude 20:24:52 73° 184° (S) 3,039 12.4 -19.7°
Enters shadow 20:39:13 27° 109° (ESE) 5,320 13.1 -22.4°
